RH
51 51 51 51 52 52 54 53 53 50 49 48 48 47 47 47 47 48 50 71 80 75 68 68 70 73 70 68 65 69 72 73 75 76 77 78 76 76 77 75 74 73 73
55 56 56 54 55 53 54 54 56 54 51 49 50 48 47 46 45 47 48 51 75 81 76 71 71 73 76 71 69 70 70 73 74 74 76 77 78 77 77 78 76 75 75
54 56 56 57 63 58 53 52 48 48 48 46 46 45 47 46 47 44 45 48 52 76 82 74 72 72 74 77 74 74 73 72 72 73 74 75 78 80 78 78 78 78 76
56 56 58 56 45 44 43 42 41 42 43 43 42 45 45 44 42 42 44 44 48 48 60 83 79 74 73 73 74 74 75 75 74 73 74 74 75 77 80 80 78 78 78
42 40 36 34 30 35 34 35 34 35 38 38 37 36 36 40 42 36 38 42 44 49 50 62 79 86 84 77 71 71 73 78 77 77 77 75 75 75 76 77 79 79 79
30 32 31 30 30 34 35 36 36 37 38 38 32 34 38 36 36 36 37 34 35 35 35 39 50 58 84 83 77 73 71 72 77 80 80 80 79 77 76 76 75 78 80
27 31 32 31 33 34 34 32 33 37 38 35 39 40 39 33 32 34 32 31 34 34 32 35 38 50 62 75 69 74 75 77 74 78 80 82 80 80 80 79 78 76 80
26 26 29 29 29 32 31 32 33 36 34 33 38 42 45 37 34 33 32 31 30 33 32 34 38 39 43 48 56 68 69 66 68 67 72 76 76 76 76 82 83 81 80
21 22 24 24 26 30 33 33 32 38 41 36 34 34 46 47 42 38 33 30 29 29 32 32 31 32 34 34 41 43 59 68 63 63 64 68 72 73 72 73 77 85 84
21 19 21 24 24 25 30 33 26 35 39 40 36 25 31 33 45 44 34 34 29 25 28 30 26 26 26 32 46 51 59 75 67 68 67 66 69 70 73 79 76 75 84
20 21 20 24 24 26 28 31 34 34 37 33 34 37 33 37 33 38 40 36 30 27 28 27 27 28 30 33 40 63 73 62 61 63 62 63 63 74 76 79 74 92 78
20 21 21 23 24 26 28 30 32 36 37 34 32 32 30 34 36 34 35 37 38 38 36 34 36 36 34 36 42 57 57 51 50 54 57 60 61 66 65 64 71 68 84
20 22 22 22 22 26 26 28 30 33 31 33 35 30 29 32 31 32 35 42 45 42 40 34 31 32 27 31 29 46 47 49 54 52 56 58 59 58 59 62 56 64 72
18 19 21 20 20 20 21 23 27 28 28 31 36 35 32 33 31 33 39 45 51 44 39 38 32 28 27 29 37 53 34 52 55 50 54 53 51 58 58 55 62 64 59
15 18 20 20 20 20 20 21 22 24 25 28 31 34 33 31 34 35 38 40 44 52 45 36 38 30 35 32 40 35 33 45 50 49 52 58 60 61 58 61 64 57 55
17 19 19 18 19 18 18 20 23 23 24 25 26 30 31 31 32 34 37 37 38 44 50 39 38 38 37 34 38 38 39 55 51 49 48 54 59 60 65 63 62 61 61
17 18 18 18 18 18 18 19 21 22 22 26 28 29 32 31 33 33 36 38 41 42 50 44 40 40 43 43 42 43 46 43 41 49 48 49 56 60 63 65 64 66 70
17 18 18 18 18 18 19 20 21 22 22 25 27 30 31 26 39 38 38 41 42 42 48 54 49 48 48 48 47 47 41 35 41 46 48 49 52 56 60 62 65 66 72
18 19 19 20 20 23 23 21 21 20 24 27 30 32 34 35 42 42 42 43 46 41 52 58 59 52 54 53 54 47 44 45 38 51 50 49 52 56 58 64 65 70 72
21 22 22 22 24 23 24 24 22 29 32 32 36 37 36 38 40 47 46 50 47 59 61 64 64 67 60 60 56 55 53 49 50 39 50 55 56 57 64 62 59 64 69
23 24 24 25 25 25 21 28 35 39 43 42 40 37 37 45 47 45 39 51 61 69 65 70 76 74 70 62 63 54 56 58 60 59 65 64 67 64 57 56 57 65 68
25 24 26 29 36 23 36 41 44 46 46 45 44 38 36 45 40 47 53 55 55 59 79 82 94 88 69 59 50 65 74 83 85 58 68 67 60 63 60 62 60 64 67
25 27 26 26 25 25 38 43 50 48 50 45 41 39 36 31 44 50 57 57 62 65 63 61 79 66 59 66 76 89 86 75 74 66 75 80 75 79 70 55 60 62 70
26 26 26 25 26 26 39 45 52 49 45 42 38 38 40 45 53 54 55 76 78 72 53 50 50 55 67 68 74 62 72 91 84 79 72 94 81 94 71 73 65 68 62
28 27 25 26 26 25 40 45 52 48 44 42 39 41 46 51 55 67 70 77 52 50 50 57 58 59 58 58 59 66 92 94 90 81 76 83 88 88 87 82 72 72 96
27 25 26 24 30 26 40 49 49 47 48 48 46 52 57 51 60 69 60 51 65 64 68 66 58 55 56 59 63 69 81 96 95 91 78 89 89 91 94 80 90 81 77
Wind_Speed
3 4 4 4 4 5 6 6 7 8 10 11 11 12 13 13 14 8 7 11 14 20 24 26 28 29 29 29 30 28 28 28 28 28 28 29 29 29 29 29 29 27 27
4 4 5 5 5 6 6 7 6 8 9 10 11 13 14 13 13 13 9 10 13 17 22 26 28 29 30 31 31 29 29 29 30 30 30 29 30 31 31 31 31 31 30
4 5 5 5 5 5 7 7 8 9 8 9 11 11 11 15 13 14 12 10 10 12 20 25 26 27 28 30 32 30 29 29 30 30 31 31 31 32 33 33 32 32 32
6 4 5 5 7 7 6 7 7 8 8 8 8 8 8 10 13 14 12 11 9 9 8 18 21 23 26 27 29 32 31 30 31 31 32 32 33 33 33 34 34 34 33
9 8 7 7 9 6 7 7 8 9 8 9 9 9 10 10 11 11 14 14 12 9 8 10 13 19 23 26 28 29 31 30 30 31 32 33 34 35 36 35 36 36 36
10 8 7 8 8 7 7 8 10 9 9 9 10 11 9 11 12 12 10 11 13 15 14 16 11 9 21 23 24 26 26 27 27 29 31 34 35 35 36 37 36 36 37
10 10 7 8 8 8 9 10 9 11 8 9 9 8 11 10 14 10 11 12 14 13 16 15 12 8 9 13 22 22 24 25 24 28 29 28 31 34 36 37 37 37 37
11 9 10 8 9 7 9 10 10 8 7 9 10 10 8 8 9 12 11 11 16 11 13 14 16 16 13 10 11 18 21 23 27 29 28 28 29 29 33 35 37 38 38
11 10 9 8 8 7 7 8 9 10 8 8 11 9 8 9 12 9 12 10 16 13 11 15 18 17 17 15 18 20 19 20 24 29 31 32 32 32 33 33 33 35 37
9 9 9 9 8 6 8 7 8 8 8 8 7 8 11 13 13 12 6 12 11 14 16 12 14 16 19 14 16 24 23 16 20 23 25 27 28 29 32 35 35 33 35
7 9 9 8 8 6 8 9 9 9 7 8 8 9 10 9 11 13 15 11 10 10 11 14 13 14 18 17 14 7 11 18 20 23 25 30 31 29 30 30 34 34 29
5 8 9 8 8 8 8 7 8 9 8 8 8 9 10 10 10 11 14 14 15 12 10 13 13 12 15 13 15 19 22 27 28 25 28 30 35 32 33 34 35 31 23
5 8 8 8 7 7 8 8 8 9 9 8 10 8 9 10 10 11 13 14 14 12 12 12 12 13 14 12 14 23 27 31 26 30 31 34 34 37 35 36 36 35 32
5 7 7 8 8 9 9 9 7 7 9 8 12 10 10 10 10 10 12 12 16 14 14 18 10 13 12 11 20 23 18 26 29 32 32 35 35 32 34 37 36 29 30
5 6 7 8 8 9 10 10 8 10 9 10 11 11 11 10 10 10 11 10 13 16 17 14 14 15 10 15 14 16 20 28 31 34 35 32 31 29 33 35 30 32 29
5 6 7 8 10 10 11 11 9 10 11 9 10 12 12 11 11 10 11 10 10 13 18 14 14 17 16 13 16 17 17 28 29 32 35 33 32 34 31 33 33 31 31
6 7 8 10 11 12 12 12 12 13 12 13 12 13 15 15 11 10 11 11 11 11 14 16 14 15 19 18 16 16 15 16 15 30 34 34 33 34 32 33 30 31 31
7 8 9 10 12 13 13 14 13 13 13 15 15 15 15 11 14 12 11 13 12 13 14 19 16 15 17 17 18 17 15 14 16 23 32 34 33 33 34 32 30 28 29
8 9 10 11 13 13 13 14 14 13 15 15 15 15 15 14 14 11 12 12 12 12 13 13 16 14 14 14 16 15 16 16 13 23 28 30 31 33 34 32 33 29 24
9 10 11 12 13 13 13 14 13 14 15 15 15 15 15 13 14 13 13 14 13 13 14 14 13 14 14 14 13 14 16 13 15 14 21 27 30 33 27 26 30 28 27
10 11 13 13 13 12 10 12 13 15 15 16 16 15 13 15 21 20 12 12 14 14 13 13 14 14 13 13 15 15 16 16 16 14 14 14 13 13 14 21 21 25 25
11 12 13 13 12 10 19 20 17 14 16 16 15 13 13 17 16 22 24 28 25 17 18 16 12 13 15 16 16 13 16 15 17 10 13 16 13 14 12 11 24 27 27
12 12 13 13 13 13 20 21 21 13 15 15 15 13 13 11 17 14 21 27 21 27 26 19 17 16 20 17 18 19 16 17 17 15 15 17 11 14 10 12 25 29 27
12 12 13 13 13 12 20 20 20 14 14 15 14 14 15 15 16 20 17 16 16 17 16 14 15 17 17 19 17 17 19 18 15 13 13 15 12 10 12 9 24 27 29
11 11 12 14 14 13 20 19 17 14 14 15 13 14 16 17 23 28 18 19 20 19 19 25 29 31 31 31 27 15 12 14 14 12 10 14 11 12 13 11 12 17 22
12 11 13 13 17 13 17 18 17 10 13 12 13 14 22 23 27 28 21 19 19 17 17 18 15 16 19 18 27 15 13 14 12 15 10 12 12 9 11 8 5 11 12
Wind_Direction
300 316 304 303 304 310 295 304 303 305 302 304 297 290 287 283 282 279 273 263 238 240 250 256 260 260 256 252 251 249 247 246 244 244 242 237 233 232 232 232 234 235 235
305 310 305 318 322 330 331 318 317 309 306 307 311 303 294 292 288 282 275 272 245 235 243 251 257 261 263 259 255 251 248 245 244 244 245 244 238 235 234 233 232 232 233
331 330 331 339 355 330 322 324 324 328 323 322 314 315 322 317 308 298 289 283 283 248 235 247 255 260 263 267 264 258 253 250 249 246 246 244 244 240 237 235 234 233 232
14 353 7 15 353 356 349 351 341 336 327 309 304 304 293 293 299 295 287 287 274 272 265 238 247 256 261 263 266 267 261 255 250 247 246 245 245 244 240 237 235 235 234
37 42 32 20 3 3 355 350 343 339 330 318 321 322 316 304 300 292 295 282 276 270 258 257 230 233 242 253 262 266 270 271 264 259 254 251 247 245 244 242 239 235 233
37 26 24 16 0 358 358 349 342 343 330 328 329 312 319 308 297 284 307 352 327 322 308 295 274 243 228 238 253 260 264 267 273 275 264 256 253 251 248 246 245 241 240
32 28 15 11 5 357 356 350 347 340 333 344 320 326 304 323 315 347 337 329 315 315 318 305 298 325 303 297 284 277 274 271 274 276 281 277 269 261 255 252 249 247 242
33 27 15 5 5 351 2 356 357 345 342 338 338 315 328 319 352 333 311 314 303 325 321 318 336 328 325 313 310 311 283 277 278 278 278 275 278 277 275 261 252 248 246
31 23 17 5 6 359 6 357 358 349 340 338 346 323 332 326 320 312 316 314 336 320 312 324 320 316 315 310 308 300 301 313 312 302 298 292 288 283 275 270 263 258 248
36 19 14 10 10 2 7 351 356 342 341 335 334 339 313 316 318 316 319 305 315 316 305 302 317 309 297 291 309 304 305 352 337 326 316 316 306 293 286 277 269 258 262
40 24 14 12 11 7 2 349 342 338 331 331 330 323 318 317 321 310 311 310 299 301 307 296 322 305 295 280 277 334 11 347 328 319 319 313 307 311 311 309 296 312 271
31 32 10 9 5 360 350 337 330 321 319 320 319 315 321 319 312 315 303 305 304 304 307 312 298 303 314 318 321 331 341 333 315 314 319 316 310 310 313 313 310 307 307
21 18 6 357 352 344 333 326 323 311 317 319 310 314 306 303 308 301 301 304 302 307 306 297 315 287 321 315 324 320 325 316 315 319 317 313 316 310 307 310 305 304 309
13 0 353 342 335 328 326 322 314 308 308 313 300 302 297 296 299 302 300 308 303 301 295 299 308 294 323 296 314 324 313 312 314 313 313 307 301 305 306 303 301 305 304
355 350 337 328 324 321 321 319 311 307 309 304 303 298 295 301 296 301 298 297 296 299 300 306 299 305 321 317 316 320 313 300 308 312 301 299 302 298 302 297 304 299 302
350 334 328 325 321 319 318 313 305 305 304 299 299 300 299 296 298 293 291 292 297 295 292 299 306 312 302 312 310 305 314 310 303 305 300 295 307 300 294 301 297 295 297
340 326 327 322 318 315 311 309 306 303 301 301 299 297 298 298 296 300 302 300 292 291 298 296 299 305 309 306 307 304 298 302 294 303 297 294 292 297 294 289 294 291 291
331 327 320 315 309 306 308 306 305 301 307 304 302 300 297 303 302 303 299 300 305 305 294 297 307 303 304 303 300 304 300 295 290 292 296 303 297 298 300 295 290 293 291
324 319 314 307 304 306 304 305 302 311 307 303 302 302 304 303 304 302 306 310 299 295 300 299 299 296 300 300 300 299 300 306 298 299 299 299 302 295 293 293 296 292 298
318 315 308 306 302 303 307 302 316 311 306 305 304 303 300 303 303 313 300 295 300 306 299 293 295 299 300 303 300 305 305 303 299 301 304 293 293 294 296 299 304 297 295
315 309 307 302 303 307 299 321 311 310 308 305 302 298 300 303 300 294 299 304 305 294 293 299 298 296 298 307 305 305 298 301 298 298 297 293 296 295 290 290 291 288 293
312 308 301 301 300 300 311 312 313 307 307 304 297 303 303 300 302 309 311 305 301 312 307 298 294 301 305 304 303 303 299 299 300 296 298 295 293 287 287 291 294 293 294
307 304 304 308 308 311 312 314 314 311 302 296 300 306 303 307 314 312 299 300 314 303 308 299 302 299 300 304 303 295 297 296 292 298 294 288 293 284 290 297 299 301 302
309 310 308 311 310 307 313 316 314 304 302 299 305 308 309 315 310 302 312 317 312 298 300 294 293 298 294 292 289 299 298 293 287 285 295 295 306 298 297 293 302 293 299
310 311 310 310 307 309 313 314 316 304 305 307 312 316 311 304 301 321 320 313 310 307 305 305 307 305 306 308 303 301 293 296 293 299 302 294 298 309 296 292 284 301 320
310 311 307 306 308 309 314 312 313 306 305 308 308 302 304 306 319 324 318 317 311 311 312 310 310 306 303 295 299 297 299 294 301 298 301 298 297 301 298 289 308 317 314